Location: Newark
(37.7892°N, 97.1083°W)
Time: 20:14:59
(UTC+00:00)

LightSail 2 - Pass Details

Date: 11 December 2019
Orbit: 704 x 720 km, 24.0° (Epoch: 20 January)

Event Time Altitude Azimuth Distance (km) Brightness Sun altitude
Rises 00:22:19 0° 245° (WSW) 3,096 10.4 -14.0°
Reaches altitude 10° 00:27:15 10° 204° (SSW) 2,168 8.2 -14.9°
Maximum altitude 00:27:58 10° 196° (SSW) 2,148 8.1 -15.1°
Drops below altitude 10° 00:28:41 10° 188° (S) 2,166 8.0 -15.2°
Sets 00:33:36 0° 146° (SSE) 3,076 8.3 -16.1°
